Grand Canyon, AZ

12:48 AM MST on May 29, 2017 (GMT -0700)
Grand Canyon National Park

Weather History for KGCN - March, 2013

Change the Weather History Date:

Friday, March 1, 2013

  Actual Average Record
Temperature  
Mean Temperature 38 °F -  
Max Temperature 57 °F 43 °F 66 °F (2009)
Min Temperature 18 °F 16 °F -8 °F (1997)
Degree Days  
Heating Degree Days 28    
Moisture  
Dew Point 16 °F    
Average Humidity 51    
Maximum Humidity 78    
Minimum Humidity 21    
Precipitation  
Precipitation 0.00 in - - ()
Sea Level Pressure  
Sea Level Pressure 30.44 in    
Wind  
Wind Speed 4 mph (NE)    
Max Wind Speed 12 mph    
Max Gust Speed 17 mph    
Visibility 10 miles    
Events      
Averages and records for this station are not official NWS values.
T = Trace of Precipitation, MM = Missing Value Source: NWS Daily Summary

Daily Weather History Graph

Daily Weather History Graph

Search for Another Location

Airport or City:

Trip Planner

Search our weather history database for the weather conditions in past years. The results will help you decide how hot, cold, wet, or windy it might be!

Date:

Astronomy

Mar. 01, 2013 Rise Set
Actual Time 6:58 AM MST 6:23 PM MST
Civil Twilight 6:32 AM MST 6:49 PM MST
Nautical Twilight 6:02 AM MST 7:19 PM MST
Astronomical Twilight 5:33 AM MST 7:49 PM MST
Moon 10:50 PM MST (3/1) 8:56 AM MST (3/1)
Length of Visible Light 12h 17m
Length of Day
11h 25m
Waning Gibbous, 83% of the Moon is Illuminated
Mar 1
Waning Gibbous
Mar 4
Last Quarter
Mar 11
New
Mar 19
First Quarter
Mar 27
Full

Hourly Weather History & Observations

Time (MST) Temp. Windchill Dew Point Humidity Pressure Visibility Wind Dir Wind Speed Gust Speed Precip Events Conditions
12:54 AM 19.0 °F - 12.0 °F 74% 30.46 in 10.0 mi Calm Calm - N/A   Clear
1:54 AM 18.0 °F - 12.0 °F 78% 30.48 in 10.0 mi Calm Calm - N/A   Clear
3:54 AM 19.0 °F 12.3 °F 12.9 °F 77% 30.43 in 10.0 mi NE 4.6 mph - N/A   Clear
5:54 AM 19.0 °F 11.1 °F 12.9 °F 77% 30.45 in 10.0 mi NE 5.8 mph - N/A   Clear
6:54 AM 19.0 °F 11.1 °F 12.9 °F 77% 30.51 in 10.0 mi ENE 5.8 mph - N/A   Clear
7:54 AM 24.1 °F - 16.0 °F 71% 30.54 in 10.0 mi Calm Calm - N/A   Clear
8:54 AM 37.9 °F - 19.0 °F 47% 30.50 in 10.0 mi Calm Calm - N/A   Clear
9:54 AM 48.9 °F - 18.0 °F 29% 30.46 in 10.0 mi NE 11.5 mph - N/A   Clear
10:54 AM 51.1 °F - 18.0 °F 27% 30.45 in 10.0 mi NE 5.8 mph - N/A   Clear
12:54 PM 55.0 °F - 17.1 °F 23% 30.41 in 10.0 mi ENE 11.5 mph 17.3 mph N/A   Clear
1:54 PM 57.0 °F - 17.1 °F 21% 30.39 in 10.0 mi NE 9.2 mph - N/A   Clear
2:54 PM 57.0 °F - 17.1 °F 21% 30.38 in 10.0 mi NE 9.2 mph - N/A   Clear
3:54 PM 54.0 °F - 17.1 °F 23% 30.39 in 10.0 mi East 10.4 mph - N/A   Clear
4:54 PM 55.0 °F - 17.1 °F 23% 30.38 in 10.0 mi NE 8.1 mph - N/A   Clear
5:54 PM 51.1 °F - 17.1 °F 26% 30.41 in 10.0 mi East 8.1 mph - N/A   Clear
6:54 PM 35.1 °F - 19.0 °F 52% 30.49 in 10.0 mi Calm Calm - N/A   Clear
7:54 PM 30.0 °F 26.5 °F 19.0 °F 64% 30.49 in 10.0 mi ENE 3.5 mph - N/A   Clear
8:54 PM 28.0 °F - 19.0 °F 69% 30.45 in 10.0 mi Calm Calm - N/A   Clear
9:54 PM 27.0 °F 23.0 °F 18.0 °F 69% 30.41 in 10.0 mi ENE 3.5 mph - N/A   Clear
11:54 PM 26.1 °F 20.5 °F 18.0 °F 71% 30.41 in 10.0 mi NE 4.6 mph - N/A   Clear